Location: Splawn
(30.9202°N, 96.9858°W)
Time: 06:22:53
(UTC+00:00)

Transit 2A Rocket - Pass Details

Date: 08 March 2020
Orbit: 588 x 915 km, 66.7° (Epoch: 07 April)

Event Time Altitude Azimuth Distance (km) Brightness Sun altitude
Rises 00:43:10 0° 205° (SSW) 2,802 8.4 -3.4°
Reaches altitude 10° 00:45:22 10° 206° (SSW) 1,904 7.5 -3.9°
Maximum altitude 00:49:36 85° 292° (WNW) 602 4.6 -4.8°
Drops below altitude 10° 00:54:02 10° 24° (NNE) 1,980 6.9 -5.7°
Sets 00:56:21 0° 25° (NNE) 2,925 7.7 -6.2°
